[[{"header":{"parameterUnit":"m.s-1","parameterCategory":1,"la1":30.2991,"la2":30.254,"lo1":-89.0895,"lo2":-89.0444,"dy":0.0017,"dx":0.0017,"nx":28,"ny":28,"refTime":"2024-10-11T03:00:00:Z","depth":0,"parameterNumber":2,"parameterNumberName":"U-component_of_WINDS"},"data":[0,0,0,0,0,0,0,0,0,0,0,0,0,0,0,0,0,0,0,0,0,0,0,0,0,0,0,0,0,0,0,0,0,0,0,0,0,0,0,0,0,0,0,0,0,0,0,0,0,0,0,0,0,0,0,0,0,0,-0.7959,-0.7959,0,-0.7989,-0.799,-0.799,-0.7937,-0.7935,-0.7933,-0.7932,-0.7965,-0.7968,-0.797,0,0,0,0,0,0,0,0,0,0,0,0,0,-0.7857,-0.7859,-0.7959,-0.7959,-0.796,-0.7989,-0.799,-0.799,-0.7937,-0.7935,-0.7933,-0.7931,-0.7964,-0.7967,-0.797,0,0,0,0,0,0,0,0,0,0,0,0,0,-0.7896,-0.786,-0.7959,-0.7937,-0.7935,-0.7989,-0.799,-0.799,-0.7938,-0.7935,-0.7932,-0.793,-0.7963,-0.7967,-0.7971,-0.8049,0,0,-0.7983,-0.7984,0,0,0,0,0,0,0,0,-0.7894,-0.79,-0.794,-0.7938,-0.7937,-0.7956,-0.7966,-0.801,-0.7938,-0.7937,-0.7931,-0.7928,-0.7965,-0.7968,-0.798,-0.805,-0.8052,-0.7983,-0.7985,-0.7987,-0.7988,0,0,0,0,0,0,0,-0.7891,-0.7898,-0.7971,-0.794,-0.7938,-0.7926,-0.7928,-0.7974,-0.7966,-0.7937,-0.7933,-0.7937,-0.7963,-0.7976,-0.798,-0.8052,-0.7983,-0.7986,-0.7989,-0.799,-0.8187,-0.819,0,0,0,0,0,0,-0.7891,-0.7896,-0.797,-0.7972,-0.7908,-0.793,-0.7933,-0.7953,-0.7965,-0.7964,-0.7939,-0.7934,-0.7971,-0.7976,-0.7981,-0.8073,-0.7987,-0.7991,-0.7993,-0.8184,-0.8188,-0.8191,0,0,0,0,0,0,-0.7889,-0.7898,-0.7969,-0.7933,-0.7941,-0.7935,-0.7958,-0.7955,-0.7968,-0.7967,-0.7965,-0.7954,-0.7969,-0.7976,-0.8032,-0.8074,-0.7992,-0.7996,-0.8181,-0.8185,-0.8189,-0.8258,0,0,0,0,0,0,-0.7886,-0.7897,-0.7927,-0.7934,-0.7943,-0.8019,-0.796,-0.7957,-0.7974,-0.7968,-0.798,-0.798,-0.7967,-0.8026,-0.8036,-0.8078,-0.7999,-0.8177,-0.8183,-0.8188,-0.8252,-0.8264,-0.8275,0,0,0,0,0,-0.7883,-0.7945,-0.7928,-0.7938,-0.7979,-0.8021,-0.8027,-0.8011,-0.7978,-0.8007,-0.8007,-0.7979,-0.8067,-0.8033,-0.8043,-0.8086,-0.8175,-0.8181,-0.8188,-0.8247,-0.8262,-0.8274,0,0,0,0,0,0,-0.7944,-0.7946,-0.7927,-0.7994,-0.8008,-0.8012,-0.8049,-0.8027,-0.8051,-0.8044,-0.8024,-0.8027,-0.8088,-0.8092,-0.8054,-0.8162,-0.8115,-0.8124,-0.8157,-0.8171,-0.8182,-0.8181,-0.8002,0,0,0,0,0,-0.7965,-0.7999,-0.7998,-0.8057,-0.8065,-0.8056,-0.8074,-0.806,-0.8074,-0.808,-0.8083,-0.8098,-0.8129,-0.815,-0.8178,-0.8252,-0.8254,-0.8286,-0.8298,-0.8307,-0.8315,-0.8355,-0.8369,-0.8213,-0.8213,-0.8213,0,0,-0.801,-0.8015,-0.8037,-0.807,-0.8079,-0.8115,-0.8061,-0.8101,-0.8128,-0.8086,-0.8139,-0.8142,-0.8157,-0.8223,-0.8251,-0.8228,-0.8359,-0.8315,-0.8323,-0.8326,-0.8363,-0.8378,-0.8391,-0.8217,-0.8216,-0.8216,0,0,-0.811,-0.8116,-0.8166,-0.8176,-0.819,-0.8183,-0.8195,-0.8203,-0.8203,-0.8255,-0.8225,-0.8256,-0.831,-0.8322,-0.8335,-0.8438,-0.8414,-0.8448,-0.8507,-0.8546,-0.8558,-0.8569,-0.8607,-0.862,-0.8456,-0.8456,-0.8456,0,-0.8164,-0.8215,-0.8195,-0.8237,-0.8252,-0.8214,-0.8265,-0.8276,-0.8299,-0.8311,-0.8284,-0.835,-0.8358,-0.8425,-0.845,-0.8462,-0.8476,-0.8447,-0.8558,-0.8569,-0.8579,-0.8614,-0.8628,-0.846,-0.846,-0.8459,-0.8459,0,-0.8281,-0.8318,-0.8356,-0.8378,-0.8398,-0.8444,-0.8431,-0.8454,-0.8438,-0.8434,-0.8488,-0.8496,-0.8525,-0.8539,-0.8525,-0.8605,-0.859,-0.8561,-0.8514,-0.8598,-0.8631,-0.8644,-0.8466,-0.8464,-0.8463,-0.8462,0,0,-0.8423,-0.8432,-0.8446,-0.8456,-0.8468,-0.8496,-0.854,-0.8568,-0.8588,-0.8604,-0.8641,-0.8687,-0.866,-0.8675,-0.8661,-0.8695,-0.8776,-0.8661,-0.8661,-0.8683,-0.8866,-0.8889,-0.8905,-0.8759,-0.8762,-0.8764,-0.8865,0,-0.8522,-0.8598,-0.8581,-0.8656,-0.8689,-0.8653,-0.8692,-0.8704,-0.8701,-0.8729,-0.8726,-0.8759,-0.872,-0.8729,-0.8761,-0.876,-0.8813,-0.8752,-0.8795,-0.8797,-0.8794,-0.8922,-0.8946,-0.9041,-0.8877,-0.888,-0.8881,0,-0.8649,-0.867,-0.8748,-0.8754,-0.8768,-0.8803,-0.8826,-0.8853,-0.8866,-0.8862,-0.8878,-0.8857,-0.8901,-0.8853,-0.8914,-0.8873,-0.8889,-0.8891,-0.8894,-0.8899,-0.8845,-0.8931,-0.9071,-0.9086,-0.8901,-0.89,-0.8898,0,-0.8746,-0.8793,-0.8846,-0.8855,-0.8863,-0.8888,-0.8893,-0.8903,-0.892,-0.8941,-0.8952,-0.8978,-0.8993,-0.9013,-0.9,-0.8966,-0.9064,-0.9014,-0.9062,-0.9063,-0.9086,-0.9085,-0.9232,-0.9094,-0.9094,-0.9094,-0.9094,0,-0.886,-0.8909,-0.8889,-0.8922,-0.8976,-0.8955,-0.901,-0.9011,-0.9019,-0.9052,-0.9022,-0.9053,-0.9033,-0.9063,-0.9053,-0.9106,-0.9112,-0.911,-0.9107,-0.9114,-0.9114,-0.9126,-0.9119,-0.9098,-0.9097,-0.9096,-0.9096,0,-0.8977,-0.8966,-0.9021,-0.9024,-0.9025,-0.9066,-0.9068,-0.9099,-0.9093,-0.9135,-0.9143,-0.9135,-0.9168,-0.9156,-0.9193,-0.9186,-0.9253,-0.9241,-0.9249,-0.9246,-0.9295,-0.9291,-0.9456,-0.9476,-0.9325,-0.9326,-0.9327,0,-0.9052,-0.9089,-0.9095,-0.9114,-0.9121,-0.9152,-0.917,-0.915,-0.917,-0.9186,-0.9215,-0.9245,-0.9269,-0.9324,-0.9322,-0.9349,-0.9338,-0.9393,-0.9342,-0.9347,-0.934,-0.9339,-0.9342,-0.9405,-0.9406,-0.9408,-0.9409,0,-0.9185,-0.9177,-0.9203,-0.9227,-0.9248,-0.9266,-0.9282,-0.93,-0.9281,-0.9304,-0.9337,-0.9356,-0.9392,-0.9423,-0.9447,-0.9452,-0.9428,-0.9425,-0.9437,-0.9445,-0.9449,-0.9449,-0.9278,-0.9422,-0.942,-0.9419,-0.9419,-0.9418,-0.9284,-0.9315,-0.9325,-0.9354,-0.9364,-0.9379,-0.9407,-0.9405,-0.9432,-0.9459,-0.9446,-0.9485,-0.9496,-0.9526,-0.9534,-0.9564,-0.9543,-0.9561,-0.9566,-0.9571,-0.9578,-0.9443,-0.9569,-0.9568,-0.9568,-0.9568,-0.9567,0,-0.9417,-0.942,-0.9448,-0.947,-0.9494,-0.9467,-0.9482,-0.9504,-0.9538,-0.955,-0.9573,-0.9612,-0.9641,-0.964,-0.9668,-0.9692,-0.9682,-0.97,-0.9699,-0.9701,-0.9595,-0.9582,-0.9708,-0.9708,-0.9708,-0.9708,-0.9708,-0.9708,-0.9489,-0.954,-0.9533,-0.9589,-0.9593,-0.963,-0.9641,-0.9655,-0.9664,-0.9708,-0.9732,-0.9731,-0.9738,-0.9765,-0.9791,-0.979,-0.9802,-0.9825,-0.982,-0.9722,-0.9708,-0.9695,-0.9682,-0.9827,-0.9827,-0.9923,-0.9924,-0.9924]},{"header":{"parameterUnit":"m.s-1","parameterCategory":1,"la1":30.2991,"la2":30.254,"lo1":-89.0895,"lo2":-89.0444,"dy":0.0017,"dx":0.0017,"nx":28,"ny":28,"refTime":"2024-10-11T03:00:00:Z","depth":0,"parameterNumber":3,"parameterNumberName":"V-component_of_WINDS"},"data":[0,0,0,0,0,0,0,0,0,0,0,0,0,0,0,0,0,0,0,0,0,0,0,0,0,0,0,0,0,0,0,0,0,0,0,0,0,0,0,0,0,0,0,0,0,0,0,0,0,0,0,0,0,0,0,0,0,0,-4.078,-4.0781,0,-4.0858,-4.0859,-4.086,-4.0802,-4.08,-4.0797,-4.0795,-4.087,-4.0874,-4.0879,0,0,0,0,0,0,0,0,0,0,0,0,0,-4.0579,-4.0583,-4.078,-4.0781,-4.0782,-4.0858,-4.0859,-4.086,-4.0803,-4.08,-4.0797,-4.0794,-4.0869,-4.0874,-4.0879,0,0,0,0,0,0,0,0,0,0,0,0,0,-4.0663,-4.0585,-4.078,-4.0763,-4.0762,-4.0857,-4.0859,-4.086,-4.0804,-4.08,-4.0796,-4.0793,-4.0867,-4.0873,-4.088,-4.0995,0,0,-4.09,-4.0902,0,0,0,0,0,0,0,0,-4.0658,-4.067,-4.0765,-4.0764,-4.0764,-4.0817,-4.0815,-4.0905,-4.0804,-4.0788,-4.0795,-4.0791,-4.0855,-4.0862,-4.0885,-4.0998,-4.1001,-4.09,-4.0904,-4.0907,-4.0909,0,0,0,0,0,0,0,-4.0652,-4.0666,-4.0811,-4.0766,-4.0766,-4.075,-4.0758,-4.0832,-4.0841,-4.0789,-4.0785,-4.0795,-4.0854,-4.0879,-4.0886,-4.1003,-4.09,-4.0906,-4.091,-4.0912,-4.1213,-4.1217,0,0,0,0,0,0,-4.0649,-4.0662,-4.0808,-4.0813,-4.0701,-4.0757,-4.0766,-4.0803,-4.084,-4.0843,-4.0798,-4.0792,-4.087,-4.0879,-4.0889,-4.1026,-4.0907,-4.0913,-4.0917,-4.1209,-4.1214,-4.1219,0,0,0,0,0,0,-4.0644,-4.0662,-4.0805,-4.0737,-4.0754,-4.0764,-4.0807,-4.0807,-4.0832,-4.0848,-4.0848,-4.0822,-4.0867,-4.088,-4.0969,-4.1027,-4.0916,-4.0922,-4.1205,-4.1211,-4.1217,-4.13,0,0,0,0,0,0,-4.0639,-4.0661,-4.0706,-4.0738,-4.0758,-4.0886,-4.0811,-4.0811,-4.0843,-4.0836,-4.087,-4.0872,-4.0865,-4.096,-4.0976,-4.1034,-4.0927,-4.1199,-4.1207,-4.1215,-4.1292,-4.1309,-4.1323,0,0,0,0,0,-4.0632,-4.0725,-4.0708,-4.0726,-4.0814,-4.0889,-4.09,-4.0891,-4.0848,-4.0893,-4.0903,-4.0871,-4.1019,-4.0969,-4.0987,-4.1048,-4.1196,-4.1205,-4.1214,-4.1286,-4.1305,-4.1322,0,0,0,0,0,0,-4.0698,-4.0729,-4.0711,-4.0818,-4.0851,-4.0879,-4.0935,-4.0913,-4.0958,-4.0949,-4.0935,-4.0943,-4.1037,-4.1051,-4.0996,-4.1161,-4.11,-4.1113,-4.1149,-4.1167,-4.1182,-4.1177,-4.0932,0,0,0,0,0,-4.0725,-4.0785,-4.0809,-4.0901,-4.0919,-4.0924,-4.0957,-4.0947,-4.0981,-4.0995,-4.1011,-4.1044,-4.1098,-4.1133,-4.1184,-4.1294,-4.13,-4.1345,-4.136,-4.1372,-4.1384,-4.1443,-4.1463,-4.1249,-4.1249,-4.1249,0,0,-4.0782,-4.0806,-4.0845,-4.0915,-4.094,-4.1001,-4.0937,-4.1004,-4.1049,-4.1004,-4.109,-4.1104,-4.1139,-4.124,-4.1285,-4.1255,-4.1444,-4.1384,-4.1394,-4.1399,-4.1455,-4.1475,-4.1493,-4.1255,-4.1254,-4.1253,0,0,-4.0916,-4.0941,-4.102,-4.1047,-4.1086,-4.109,-4.1109,-4.1141,-4.1148,-4.1235,-4.1203,-4.1255,-4.1348,-4.1375,-4.14,-4.1545,-4.1517,-4.1562,-4.164,-4.1698,-4.1715,-4.173,-4.1781,-4.18,-4.1573,-4.1574,-4.1574,0,-4.0981,-4.1073,-4.1063,-4.1134,-4.1165,-4.1129,-4.1209,-4.1235,-4.1288,-4.131,-4.1276,-4.1392,-4.1413,-4.152,-4.1555,-4.1577,-4.1598,-4.1558,-4.1714,-4.1729,-4.1742,-4.1791,-4.1811,-4.1579,-4.1578,-4.1578,-4.1577,0,-4.1151,-4.1215,-4.1274,-4.1328,-4.1366,-4.1441,-4.1442,-4.1481,-4.1468,-4.1475,-4.1563,-4.1587,-4.1642,-4.1667,-4.1654,-4.1771,-4.1751,-4.1716,-4.1654,-4.1768,-4.1814,-4.1832,-4.1586,-4.1584,-4.1583,-4.1581,0,0,-4.1328,-4.1377,-4.1399,-4.1423,-4.1464,-4.1513,-4.1585,-4.164,-4.1674,-4.1712,-4.1772,-4.1852,-4.1819,-4.1849,-4.1839,-4.189,-4.2003,-4.1848,-4.1848,-4.1876,-4.2133,-4.2159,-4.2181,-4.1985,-4.1988,-4.1991,-4.213,0,-4.1464,-4.1592,-4.1586,-4.1706,-4.1765,-4.1732,-4.1795,-4.1826,-4.1834,-4.1884,-4.1892,-4.1949,-4.1902,-4.192,-4.1969,-4.1979,-4.2054,-4.1969,-4.2039,-4.2042,-4.2031,-4.2205,-4.2233,-4.2363,-4.2148,-4.2151,-4.2153,0,-4.164,-4.1686,-4.1812,-4.1844,-4.1869,-4.1926,-4.1976,-4.2025,-4.2059,-4.2061,-4.2095,-4.2077,-4.2149,-4.2086,-4.2184,-4.2126,-4.2155,-4.2164,-4.2169,-4.2175,-4.2104,-4.2215,-4.2404,-4.2423,-4.2181,-4.2179,-4.2177,0,-4.1757,-4.1849,-4.1937,-4.1958,-4.1999,-4.2039,-4.2058,-4.2089,-4.2122,-4.2165,-4.2187,-4.2237,-4.2265,-4.2304,-4.23,-4.2254,-4.24,-4.2336,-4.2403,-4.2403,-4.2435,-4.2433,-4.263,-4.2454,-4.2453,-4.2453,-4.2453,0,-4.1909,-4.1987,-4.199,-4.2044,-4.213,-4.2121,-4.2207,-4.222,-4.2248,-4.2303,-4.2277,-4.2329,-4.232,-4.2372,-4.2369,-4.2451,-4.2463,-4.2466,-4.2464,-4.2469,-4.2468,-4.2487,-4.2477,-4.2458,-4.2457,-4.2456,-4.2455,0,-4.2053,-4.2059,-4.2152,-4.2183,-4.2192,-4.2254,-4.228,-4.233,-4.2336,-4.2406,-4.2422,-4.2431,-4.249,-4.249,-4.2557,-4.2555,-4.2656,-4.2644,-4.2645,-4.2642,-4.2709,-4.2702,-4.2925,-4.2953,-4.2759,-4.276,-4.2762,0,-4.215,-4.221,-4.2248,-4.2284,-4.2305,-4.2363,-4.2397,-4.2391,-4.2428,-4.2472,-4.2517,-4.2574,-4.2619,-4.2715,-4.2727,-4.2778,-4.2767,-4.2841,-4.2774,-4.2777,-4.2768,-4.2764,-4.277,-4.2854,-4.2856,-4.2858,-4.286,0,-4.2322,-4.2321,-4.2373,-4.2426,-4.2468,-4.2509,-4.2547,-4.2577,-4.2575,-4.2617,-4.2679,-4.2714,-4.2783,-4.284,-4.289,-4.2907,-4.2883,-4.2881,-4.2899,-4.2903,-4.2901,-4.2903,-4.268,-4.2876,-4.2874,-4.2873,-4.2872,-4.2871,-4.2445,-4.2496,-4.2532,-4.259,-4.2618,-4.2654,-4.2703,-4.2716,-4.2767,-4.2824,-4.2817,-4.2885,-4.2918,-4.2982,-4.3004,-4.3056,-4.303,-4.3056,-4.3062,-4.3069,-4.3076,-4.2894,-4.3065,-4.3064,-4.3064,-4.3064,-4.3063,0,-4.2614,-4.2636,-4.2689,-4.2744,-4.279,-4.2765,-4.2805,-4.2845,-4.2906,-4.2939,-4.2985,-4.3055,-4.311,-4.3126,-4.3179,-4.3218,-4.3208,-4.3232,-4.3229,-4.3233,-4.3097,-4.3076,-4.3239,-4.3239,-4.3239,-4.3239,-4.3239,-4.3239,-4.2708,-4.2794,-4.2798,-4.2897,-4.2917,-4.2985,-4.3011,-4.3043,-4.307,-4.315,-4.3196,-4.3207,-4.3233,-4.3288,-4.3337,-4.3341,-4.3361,-4.3389,-4.3388,-4.326,-4.3243,-4.3226,-4.3206,-4.3394,-4.3394,-4.352,-4.3521,-4.3522]}]]